Tracking 22454 objects as of 5-Mar-2021
HD Live streaming from Space Station
objects crossing your sky now

CZ-4B R/B

Track CZ-4B R/B now!
10-day predictions


NORAD ID: 41635
Int'l Code: 2016-043B
Perigee: 320.1 km
Apogee: 458.5 km
Inclination: 75.0 °
Period: 92.2 minutes
Semi major axis: 6760 km
RCS: Unknown
Launch date: June 29, 2016
Source: People's Republic of China (PRC)
Launch site: Jiuquan Satellite Launch Center, China (JSC)

Note: This is a ROCKET BODY
aabbcc
Your satellite tracking list
Your tracking list is empty




NASA's NSSDC Master Catalog

Two Line Element Set (TLE):
1 41635U 16043B   21063.20974035  .00021467  00000-0  18950-3 0  9991
2 41635  74.9730 343.6373 0102303 185.6782 174.3294 15.61899733264268
Source of the keplerian elements: AFSPC